Regional Weather Roundup
Issued by NWS Cleveland, OH

Home | Current Version | Previous Version | Graphics & Text | Print | Product List | Glossary On
Versions: 1 2 3 4 5 6 7 8 9 10 11 12 13 14 15 16 17 18 19 20 21 22 23 24 25 26 27 28 29 30 31 32 33 34 35 36 37 38 39 40 41 42 43 44 45 46 47 48 49 50
000
ASUS41 KCLE 260512
RWRCLE
OHIO REGIONAL WEATHER ROUNDUP
NATIONAL WEATHER SERVICE WILMINGTON, OH
100 AM EDT WED APR 26 2017

NOTE: "FAIR" INDICATES FEW OR NO CLOUDS BELOW 12,000 FEET WITH NO
SIGNIFICANT WEATHER AND/OR OBSTRUCTIONS TO VISIBILITY.

OHZ001>008-015>018-024>027-034-035-043-044-260600-
   NORTHWEST OHIO

CITY           SKY/WX    TMP DP  RH WIND       PRES   REMARKS
DEFIANCE       FAIR      56  52  86 E6        29.69S
FINDLAY        FAIR      62  52  69 SE7       29.71R
TOLEDO EXPRESS FAIR      58  54  86 E3        29.71S
TOLEDO EXEC    FAIR      57  54  89 E7        29.72S
LIMA           FAIR      62  54  74 SE8       29.71R
$$

OHZ009>014-019>023-028>033-038-089-260600-
   NORTHEAST OHIO

CITY           SKY/WX    TMP DP  RH WIND       PRES   REMARKS
CLE-HOPKINS    FAIR      61  52  72 SE9       29.77S
CLE-LAKEFRONT  FAIR      62  52  69 SE10      29.75R
CUY CO. ARPT   NOT AVBL
LORAIN-ELYRIA  FAIR      59  52  77 S10       29.75S
ASHTABULA      FAIR      58  53  84 SE7       29.79S
AKRON-CANTON   FAIR      58  51  78 SE7       29.78S
WOOSTER        FAIR      54  52  93 SE3       29.77R
MANSFIELD      FAIR      58  54  86 SE9       29.76R
YOUNGSTOWN     FAIR      54  51  90 E3        29.80R
$$

OHZ042-051>053-060>062-070>072-077>081-260600-
  SOUTHWEST OHIO

CITY           SKY/WX    TMP DP  RH WIND       PRES   REMARKS
CINC-COVINGTON FAIR      61  56  83 S5        29.70S
CINC-LUNKEN    FAIR      58  58 100 CALM      29.71R
HAMILTON       FAIR      60  57  89 E3        29.71R
DAYTON         FAIR      60  54  80 SE8       29.71R
WRIGHT-PAT AFB FAIR      63  56  79 CALM      29.71R
DAYTON GENERAL FAIR      62  55  77 S3        29.71R
WILMINGTON     FAIR      60  56  86 SE3       29.72R
$$

OHZ036-037-039>041-045>050-054>059-063>069-073>076-082>088-260600-
  CENTRAL AND SOUTHEAST OHIO

CITY           SKY/WX    TMP DP  RH WIND       PRES   REMARKS
COLUMBUS       FAIR      62  55  77 E9        29.72S
OSU AIRPORT    FAIR      61  55  81 E8        29.72S
BOLTON FIELD   FAIR      60  54  80 E3        29.73R
RICKENBACK AFB FAIR      59  54  84 SE5       29.72S
NEWARK         FAIR      59  53  80 E3        29.74R
MARION         FAIR      61  53  75 SE9       29.74R
LANCASTER      FAIR      56  52  86 CALM      29.74R
ZANESVILLE     FAIR      57  53  86 E3        29.75S
NEW PHILLY     FAIR      57  54  89 CALM      29.77S
$$




USA.gov is the U.S. government's official web portal to all federal, state and local government web resources and services.